This demonstration page uses our WeatherBlox Daily Observations layout. Learn more.

Left ArrowRight Arrow

Hourly Observations for January 16, 2015

Temp ( °F °C ) Dew Point ( °F °C ) Humidity (%) Winds ( mph kmh ) Pressure ( in mb ) Visibility ( mi km ) Precip ( " mm )
12:51 am 00:51 Clear 43 6.1 35 1.7 74 74 ESE 9 15 30.30 1026 10 16 N/A
1:51 am 01:51 Clear 41 5 35 1.7 79 79 E 9 15 30.31 1026 10 16 N/A
2:51 am 02:51 Clear 40 4.4 34 1.1 79 79 E 9 15 30.29 1026 10 16 N/A
3:51 am 03:51 Clear 41 5 33 0.6 73 73 ESE 9 15 30.27 1025 10 16 N/A
4:51 am 04:51 Clear 40 4.4 32 undefined 73 73 SSE 7 11 30.26 1025 10 16 N/A
5:51 am 05:51 Clear 41 5 31 -0.6 67 67 ESE 13 20 30.27 1025 10 16 N/A
6:51 am 06:51 Clear 40 4.4 30 -1.1 68 68 SE 14 22 30.28 1026 10 16 N/A
7:51 am 07:51 Sunny 37 2.8 30 -1.1 76 76 S 12 19 30.30 1026 10 16 N/A
8:51 am 08:51 Sunny 43 6.1 30 -1.1 60 60 SE 14 22 30.31 1026 10 16 N/A
9:51 am 09:51 Sunny 47 8.3 32 undefined 56 56 SSE 12 19 30.31 1026 10 16 N/A
10:51 am 10:51 Sunny 51 10.6 31 -0.6 46 46 SE 9 15 30.29 1026 10 16 N/A
11:51 am 11:51 Sunny 54 12.2 31 -0.6 42 42 SSE 6 9 30.25 1025 10 16 N/A
12:51 pm 12:51 Sunny 58 14.4 27 -2.8 31 31 S 12 19 30.20 1023 10 16 N/A
1:51 pm 13:51 Sunny 60 15.6 26 -3.3 27 27 undefined N/A 30.17 1022 10 16 N/A
2:51 pm 14:51 Sunny 61 16.1 25 -3.9 25 25 SSE 6 9 30.14 1021 10 16 N/A
3:51 pm 15:51 Sunny 61 16.1 23 -5 23 23 S 7 11 30.13 1020 10 16 N/A
4:51 pm 16:51 Sunny 61 16.1 23 -5 23 23 S 6 9 30.12 1020 10 16 N/A
5:51 pm 17:51 Clear 55 12.8 27 -2.8 34 34 SSW 3 6 30.14 1021 10 16 N/A
6:51 pm 18:51 Clear 48 8.9 33 0.6 56 56 NE 6 9 30.16 1021 10 16 N/A
7:51 pm 19:51 Clear 45 7.2 33 0.6 63 63 ESE 5 7 30.18 1022 10 16 N/A
8:51 pm 20:51 Clear 42 5.6 33 0.6 71 71 E 7 11 30.17 1022 10 16 N/A
9:51 pm 21:51 Clear 43 6.1 31 -0.6 63 63 NE 7 11 30.17 1022 10 16 N/A
10:51 pm 22:51 Clear 37 2.8 31 -0.6 79 79 NNW 6 9 30.21 1023 10 16 N/A
11:51 pm 23:51 Clear 38 3.3 30 -1.1 73 73 N 3 6 30.21 1023 10 16 N/A

Powered by AerisWeather